• In Deutschland
  • Länderverzeichnis
  • Für 7 Tage
  • Wassertemperatur
  • Satellitenkarten
  • Wetterkarte
  • Widgets
  • user-avatar
    Anmelden

    Stündliche Wetter Cairns

    Heute, 26 März, Sonntag

    Zeit Temperatur Niederschläge Wind Luftdruck Luftfeuchtigkeit
    00:00 +25°C° 0 mm 3 m/S 756 mmHg 96%
    01:00 +25°C° 0 mm 3 m/S 755 mmHg 95%
    02:00 +26°C° 0 mm 3 m/S 755 mmHg 95%
    03:00 +26°C° 0 mm 2 m/S 755 mmHg 95%
    04:00 +26°C° 0 mm 2 m/S 755 mmHg 95%
    05:00 +26°C° 0 mm 2 m/S 755 mmHg 94%
    06:00 +26°C° 0 mm 2 m/S 756 mmHg 93%
    07:00 +26°C° 0 mm 3 m/S 756 mmHg 93%
    08:00 +29°C° 0 mm 2 m/S 756 mmHg 81%
    09:00 +31°C° 0 mm 2 m/S 756 mmHg 70%
    10:00 +34°C° 0 mm 2 m/S 756 mmHg 58%
    11:00 +36°C° 0 mm 2 m/S 756 mmHg 53%
    12:00 +37°C° 0 mm 2 m/S 755 mmHg 47%
    13:00 +38°C° 0 mm 2 m/S 754 mmHg 42%
    14:00 +37°C° 0 mm 3 m/S 754 mmHg 43%
    15:00 +37°C° 0 mm 3 m/S 754 mmHg 45%
    16:00 +36°C° 0 mm 3 m/S 753 mmHg 46%
    17:00 +32°C° 0 mm 2 m/S 754 mmHg 59%
    18:00 +29°C° 0 mm 2 m/S 754 mmHg 72%
    19:00 +26°C° 0 mm 1 m/S 754 mmHg 85%
    20:00 +26°C° 0 mm 1 m/S 755 mmHg 84%
    21:00 +25°C° 0 mm 1 m/S 755 mmHg 83%
    22:00 +25°C° 0 mm 2 m/S 756 mmHg 82%
    23:00 +25°C° 0 mm 2 m/S 756 mmHg 78%

    Morgen, 27 März, Montag

    Zeit Temperatur Niederschläge Wind Luftdruck Luftfeuchtigkeit
    00:00 +26°C° 0 mm 2 m/S 755 mmHg 75%
    01:00 +26°C° 0 mm 2 m/S 755 mmHg 72%
    02:00 +26°C° 0 mm 2 m/S 755 mmHg 72%
    03:00 +26°C° 0 mm 2 m/S 755 mmHg 73%
    04:00 +26°C° 0 mm 2 m/S 754 mmHg 74%
    05:00 +26°C° 0 mm 3 m/S 754 mmHg 75%
    06:00 +25°C° 0 mm 3 m/S 755 mmHg 76%
    07:00 +25°C° 0 mm 3 m/S 755 mmHg 77%
    08:00 +28°C° 0 mm 3 m/S 755 mmHg 70%
    09:00 +30°C° 0 mm 3 m/S 755 mmHg 63%
    10:00 +33°C° 0 mm 3 m/S 755 mmHg 57%
    11:00 +34°C° 0 mm 3 m/S 755 mmHg 53%
    12:00 +35°C° 0 mm 2 m/S 754 mmHg 49%
    13:00 +35°C° 0 mm 2 m/S 753 mmHg 46%
    14:00 +35°C° 0 mm 3 m/S 753 mmHg 47%
    15:00 +35°C° 0 mm 3 m/S 752 mmHg 49%
    16:00 +35°C° 0 mm 3 m/S 752 mmHg 51%
    17:00 +33°C° 0 mm 3 m/S 752 mmHg 56%
    18:00 +30°C° 0 mm 2 m/S 753 mmHg 62%
    19:00 +28°C° 0 mm 2 m/S 753 mmHg 68%
    20:00 +28°C° 0 mm 2 m/S 753 mmHg 66%
    21:00 +28°C° 0 mm 3 m/S 754 mmHg 65%
    22:00 +28°C° 0 mm 3 m/S 754 mmHg 64%
    23:00 +28°C° 0 mm 3 m/S 754 mmHg 64%

    übermorgen, 28 März, Dienstag

    Zeit Temperatur Niederschläge Wind Luftdruck Luftfeuchtigkeit
    00:00 +28°C° 0 mm 3 m/S 753 mmHg 63%
    01:00 +27°C° 0 mm 3 m/S 753 mmHg 62%
    02:00 +27°C° 0 mm 3 m/S 752 mmHg 63%
    03:00 +27°C° 0 mm 3 m/S 752 mmHg 64%
    04:00 +27°C° 0 mm 4 m/S 752 mmHg 64%
    05:00 +27°C° 0 mm 4 m/S 752 mmHg 66%
    06:00 +27°C° 0 mm 4 m/S 753 mmHg 68%
    07:00 +27°C° 0 mm 4 m/S 753 mmHg 69%
    08:00 +29°C° 0 mm 4 m/S 753 mmHg 65%
    09:00 +32°C° 0 mm 4 m/S 754 mmHg 61%
    10:00 +33°C° 0 mm 4 m/S 754 mmHg 56%
    11:00 +35°C° 0 mm 4 m/S 753 mmHg 54%
    12:00 +36°C° 0 mm 4 m/S 753 mmHg 52%
    13:00 +37°C° 0 mm 4 m/S 752 mmHg 50%
    14:00 +37°C° 0 mm 5 m/S 752 mmHg 51%
    15:00 +36°C° 0 mm 5 m/S 751 mmHg 52%
    16:00 +36°C° 0 mm 5 m/S 751 mmHg 54%
    17:00 +35°C° 0 mm 5 m/S 751 mmHg 60%
    18:00 +33°C° 0 mm 5 m/S 752 mmHg 67%
    19:00 +30°C° 0 mm 5 m/S 752 mmHg 74%
    20:00 +30°C° 0 mm 5 m/S 753 mmHg 77%
    21:00 +29°C° 0 mm 5 m/S 753 mmHg 80%
    22:00 +28°C° 0 mm 5 m/S 754 mmHg 84%
    23:00 +28°C° 0,2 mm 5 m/S 754 mmHg 86%

    29 März, Mittwoch

    Zeit Temperatur Niederschläge Wind Luftdruck Luftfeuchtigkeit
    00:00 +28°C° 0,2 mm 5 m/S 753 mmHg 87%
    01:00 +28°C° 0,2 mm 5 m/S 753 mmHg 89%
    02:00 +28°C° 0,1 mm 5 m/S 753 mmHg 90%
    03:00 +28°C° 0,1 mm 4 m/S 753 mmHg 91%
    04:00 +28°C° 0,1 mm 4 m/S 753 mmHg 93%
    05:00 +28°C° 0,3 mm 3 m/S 753 mmHg 92%
    06:00 +28°C° 0,3 mm 3 m/S 754 mmHg 92%
    07:00 +28°C° 0,3 mm 3 m/S 755 mmHg 92%
    08:00 +30°C° 0 mm 3 m/S 755 mmHg 81%
    09:00 +33°C° 0 mm 3 m/S 755 mmHg 70%
    10:00 +35°C° 0 mm 3 m/S 755 mmHg 59%
    11:00 +36°C° 0,1 mm 3 m/S 755 mmHg 56%
    12:00 +37°C° 0,1 mm 4 m/S 754 mmHg 53%
    13:00 +38°C° 0,1 mm 4 m/S 754 mmHg 49%
    14:00 +37°C° 0,2 mm 4 m/S 753 mmHg 55%
    15:00 +36°C° 0,2 mm 5 m/S 753 mmHg 61%
    16:00 +35°C° 0,2 mm 5 m/S 753 mmHg 66%
    17:00 +33°C° 0,1 mm 4 m/S 754 mmHg 75%
    18:00 +30°C° 0,1 mm 4 m/S 754 mmHg 85%
    19:00 +28°C° 0,1 mm 4 m/S 755 mmHg 94%
    20:00 +27°C° 0,2 mm 3 m/S 755 mmHg 95%
    21:00 +27°C° 0,2 mm 3 m/S 756 mmHg 95%
    22:00 +26°C° 0,2 mm 3 m/S 756 mmHg 96%
    23:00 +26°C° 0,1 mm 3 m/S 756 mmHg 96%

    30 März, Donnerstag

    Zeit Temperatur Niederschläge Wind Luftdruck Luftfeuchtigkeit
    00:00 +26°C° 0,1 mm 3 m/S 756 mmHg 96%
    01:00 +26°C° 0,1 mm 3 m/S 755 mmHg 96%
    02:00 +26°C° 0,1 mm 3 m/S 755 mmHg 96%
    03:00 +26°C° 0,1 mm 3 m/S 755 mmHg 96%
    04:00 +27°C° 0,1 mm 2 m/S 755 mmHg 96%
    05:00 +27°C° 0 mm 2 m/S 755 mmHg 96%
    06:00 +27°C° 0 mm 2 m/S 756 mmHg 95%
    07:00 +27°C° 0 mm 2 m/S 756 mmHg 94%
    08:00 +29°C° 0 mm 2 m/S 756 mmHg 85%
    09:00 +32°C° 0 mm 2 m/S 757 mmHg 75%
    10:00 +35°C° 0 mm 2 m/S 757 mmHg 66%
    11:00 +35°C° 0 mm 3 m/S 756 mmHg 62%
    12:00 +36°C° 0 mm 3 m/S 755 mmHg 58%
    13:00 +37°C° 0 mm 4 m/S 755 mmHg 55%
    14:00 +37°C° 0 mm 4 m/S 754 mmHg 56%
    15:00 +36°C° 0 mm 4 m/S 754 mmHg 58%
    16:00 +36°C° 0 mm 4 m/S 754 mmHg 60%
    17:00 +34°C° 0 mm 4 m/S 754 mmHg 70%
    18:00 +32°C° 0 mm 4 m/S 755 mmHg 80%
    19:00 +29°C° 0 mm 3 m/S 755 mmHg 91%
    20:00 +28°C° 0 mm 3 m/S 756 mmHg 92%
    21:00 +28°C° 0 mm 3 m/S 756 mmHg 94%
    22:00 +27°C° 0 mm 3 m/S 756 mmHg 95%
    23:00 +27°C° 0,3 mm 3 m/S 756 mmHg 95%

    31 März, Freitag

    Zeit Temperatur Niederschläge Wind Luftdruck Luftfeuchtigkeit
    00:00 +27°C° 0,3 mm 3 m/S 756 mmHg 95%
    01:00 +28°C° 0,3 mm 3 m/S 755 mmHg 95%
    02:00 +27°C° 0,4 mm 3 m/S 755 mmHg 95%
    03:00 +27°C° 0,4 mm 3 m/S 755 mmHg 95%
    04:00 +27°C° 0,4 mm 2 m/S 755 mmHg 95%
    05:00 +27°C° 0,1 mm 2 m/S 755 mmHg 94%
    06:00 +27°C° 0,1 mm 2 m/S 756 mmHg 93%
    07:00 +27°C° 0,1 mm 2 m/S 756 mmHg 92%
    08:00 +30°C° 0,1 mm 2 m/S 756 mmHg 82%
    09:00 +32°C° 0,1 mm 2 m/S 756 mmHg 71%
    10:00 +34°C° 0,1 mm 1 m/S 756 mmHg 61%
    11:00 +36°C° 0,2 mm 2 m/S 756 mmHg 61%
    12:00 +37°C° 0,2 mm 3 m/S 755 mmHg 61%
    13:00 +37°C° 0,2 mm 3 m/S 754 mmHg 61%
    14:00 +36°C° 0,6 mm 4 m/S 754 mmHg 68%
    15:00 +35°C° 0,6 mm 4 m/S 754 mmHg 76%
    16:00 +33°C° 0,6 mm 4 m/S 754 mmHg 83%
    17:00 +32°C° 0,1 mm 4 m/S 754 mmHg 87%
    18:00 +30°C° 0,1 mm 3 m/S 755 mmHg 91%
    19:00 +28°C° 0,1 mm 3 m/S 755 mmHg 95%
    20:00 +28°C° 0,1 mm 3 m/S 756 mmHg 95%
    21:00 +28°C° 0,1 mm 3 m/S 756 mmHg 95%
    22:00 +28°C° 0,1 mm 3 m/S 756 mmHg 95%
    23:00 +28°C° 0,3 mm 3 m/S 756 mmHg 95%
    Mehr zeigen